This demonstration page uses our WeatherBlox Daily Observations layout. Learn more.

Left ArrowRight Arrow

47.50024, -111.30081

Hourly Observations for January 27, 2016

Temp ( °F °C ) Dew Point ( °F °C ) Humidity (%) Winds ( mph kmh ) Pressure ( in mb ) Visibility ( mi km ) Precip ( " mm )
12:53 am 00:53 Clear 43 6.1 28 -2.2 56 56 SW 26 43 30.14 1021 10 16 0.00 0.00
1:53 am 01:53 Clear 42 5.6 29 -1.7 60 60 SW 20 31 30.15 1021 10 16 0.00 0.00
2:53 am 02:53 Clear 41 5 29 -1.7 62 62 WSW 15 24 30.16 1022 10 16 0.00 0.00
3:53 am 03:53 Clear 42 5.6 30 -1.1 62 62 WSW 22 35 30.18 1022 10 16 0.00 0.00
4:53 am 04:53 Clear 42 5.6 30 -1.1 62 62 WSW 23 37 30.21 1023 10 16 0.00 0.00
5:53 am 05:53 Clear 41 5 30 -1.1 65 65 WSW 24 39 30.21 1023 10 16 0.00 0.00
6:53 am 06:53 Clear 39 3.9 30 -1.1 70 70 SW 22 35 30.21 1023 10 16 0.00 0.00
7:53 am 07:53 Clear 40 4.4 29 -1.7 65 65 SW 21 33 30.22 1023 10 16 0.00 0.00
8:53 am 08:53 Sunny 43 6.1 28 -2.2 56 56 SW 21 33 30.22 1023 10 16 0.00 0.00
9:53 am 09:53 Sunny 45 7.2 30 -1.1 56 56 SW 18 30 30.19 1022 10 16 0.00 0.00
10:53 am 10:53 Sunny 49 9.4 31 -0.6 50 50 SW 22 35 30.19 1023 10 16 0.00 0.00
11:53 am 11:53 Sunny 52 11.1 30 -1.1 43 43 WSW 28 44 30.17 1022 10 16 0.00 0.00
12:53 pm 12:53 Sunny 55 12.8 31 -0.6 40 40 WSW 28 44 30.15 1021 10 16 0.00 0.00
1:53 pm 13:53 Sunny 53 11.7 32 0 45 45 WSW 23 37 30.14 1021 10 16 0.00 0.00
2:53 pm 14:53 Sunny 51 10.6 33 0.6 50 50 WSW 15 24 30.15 1021 10 16 0.00 0.00
3:53 pm 15:53 Sunny 49 9.4 33 0.6 55 55 SW 21 33 30.14 1021 10 16 0.00 0.00
4:53 pm 16:53 Sunny 47 8.3 32 0 56 56 SW 14 22 30.15 1021 10 16 0.00 0.00
5:53 pm 17:53 Clear 44 6.7 32 0 63 63 SW 17 28 30.16 1021 10 16 0.00 0.00
6:53 pm 18:53 Clear 44 6.7 32 0 63 63 SW 16 26 30.16 1021 10 16 0.00 0.00
7:53 pm 19:53 Clear 43 6.1 33 0.6 68 68 SW 17 28 30.15 1021 10 16 0.00 0.00
8:53 pm 20:53 Clear 45 7.2 34 1.1 66 66 SW 20 31 30.13 1020 10 16 0.00 0.00
9:53 pm 21:53 Clear 46 7.8 34 1.1 63 63 SW 24 39 30.10 1019 10 16 0.00 0.00
10:53 pm 22:53 Clear 47 8.3 35 1.7 63 63 SW 25 41 30.07 1018 10 16 0.00 0.00
11:53 pm 23:53 Clear 46 7.8 34 1.1 63 63 SW 22 35 30.04 1017 10 16 0.00 0.00

Powered by AerisWeather